Change the Weather History Date:

Saturday, December 17, 2011

  Actual Average Record
Temperature  
Mean Temperature 54 °F -  
Max Temperature 64 °F 59 °F 79 °F (1971)
Min Temperature 44 °F 40 °F 16 °F (1943)
Degree Days  
Heating Degree Days 11    
Growing Degree Days 4 (Base 50)    
Moisture  
Dew Point 50 °F    
Average Humidity 77    
Maximum Humidity 93    
Minimum Humidity 52    
Precipitation  
Precipitation 0.00 in - - ()
Sea Level Pressure  
Sea Level Pressure 30.16 in    
Wind  
Wind Speed 7 mph (West)    
Max Wind Speed 13 mph    
Max Gust Speed -    
Visibility 10 miles    
Events      
Averages and records for this station are not official NWS values.
T = Trace of Precipitation, MM = Missing Value Source: NWS Daily Summary

Daily Weather History Graph

Daily Weather History Graph

Search for Another Location

Airport or City:

Trip Planner

Search our weather history database for the weather conditions in past years. The results will help you decide how hot, cold, wet, or windy it might be!

Date:

Astronomy

Dec. 17, 2011 Rise Set
Actual Time 7:18 AM EST 5:19 PM EST
Civil Twilight 6:51 AM EST 5:46 PM EST
Nautical Twilight 6:20 AM EST 6:17 PM EST
Astronomical Twilight 5:50 AM EST 6:47 PM EST
Moon No Moon Rise 11:54 AM EST (12/17)
Length of Visible Light 10h 55m
Length of Day
10h 01m
Waning Gibbous, 54% of the Moon is Illuminated
Dec 17
Waning Gibbous
Dec 17
Last Quarter
Dec 24
New
Jan 1
First Quarter
Jan 9
Full

Hourly Weather History & Observations

Time (EST) Temp. Windchill Dew Point Humidity Pressure Visibility Wind Dir Wind Speed Gust Speed Precip Events Conditions
12:56 AM 57.0 °F - 54.0 °F 89% 30.13 in 10.0 mi SSW 6.9 mph - N/A   Clear
1:56 AM 57.0 °F - 54.0 °F 89% 30.12 in 10.0 mi SSW 8.1 mph - N/A   Clear
2:56 AM 55.9 °F - 53.1 °F 90% 30.12 in 10.0 mi SSW 8.1 mph - N/A   Clear
3:56 AM 55.9 °F - 53.1 °F 90% 30.12 in 10.0 mi SSW 6.9 mph - N/A   Clear
4:56 AM 57.0 °F - 54.0 °F 89% 30.11 in 10.0 mi South 6.9 mph - N/A   Scattered Clouds
5:56 AM 57.9 °F - 55.0 °F 90% 30.12 in 10.0 mi SSW 5.8 mph - N/A   Overcast
6:56 AM 60.1 °F - 55.0 °F 83% 30.15 in 10.0 mi WSW 4.6 mph - N/A   Overcast
7:56 AM 59.0 °F - 54.0 °F 83% 30.16 in 10.0 mi West 5.8 mph - N/A   Scattered Clouds
8:56 AM 60.1 °F - 54.0 °F 80% 30.17 in 10.0 mi WNW 11.5 mph - N/A   Clear
9:12 AM 59.0 °F - 53.6 °F 82% 30.18 in 10.0 mi WNW 10.4 mph - N/A   Mostly Cloudy
9:56 AM 59.0 °F - 53.1 °F 81% 30.20 in 10.0 mi WNW 8.1 mph - N/A   Overcast
10:56 AM 62.1 °F - 53.1 °F 72% 30.19 in 10.0 mi WNW 9.2 mph - N/A   Mostly Cloudy
11:04 AM 62.6 °F - 53.6 °F 72% 30.19 in 10.0 mi WNW 4.6 mph - N/A   Scattered Clouds
11:56 AM 63.0 °F - 52.0 °F 67% 30.17 in 10.0 mi WNW 6.9 mph - N/A   Mostly Cloudy
12:56 PM 64.0 °F - 51.1 °F 63% 30.14 in 10.0 mi WNW 12.7 mph - N/A   Overcast
1:56 PM 64.9 °F - 50.0 °F 58% 30.13 in 10.0 mi West 10.4 mph - N/A   Mostly Cloudy
2:08 PM 64.4 °F - 48.2 °F 56% 30.12 in 10.0 mi SW 9.2 mph - N/A   Scattered Clouds
2:56 PM 64.9 °F - 48.0 °F 54% 30.12 in 10.0 mi WSW 9.2 mph - N/A   Clear
3:56 PM 64.0 °F - 46.0 °F 52% 30.12 in 10.0 mi West 9.2 mph - N/A   Clear
4:56 PM 62.1 °F - 45.0 °F 53% 30.14 in 10.0 mi NW 5.8 mph - N/A   Clear
5:56 PM 55.0 °F - 44.1 °F 67% 30.16 in 10.0 mi Calm Calm - N/A   Clear
6:56 PM 51.1 °F - 46.0 °F 83% 30.17 in 10.0 mi WNW 3.5 mph - N/A   Clear
7:56 PM 48.0 °F - 44.1 °F 86% 30.19 in 10.0 mi Calm Calm - N/A   Clear
8:56 PM 54.0 °F - 45.0 °F 72% 30.20 in 10.0 mi WNW 3.5 mph - N/A   Scattered Clouds
9:56 PM 50.0 °F - 45.0 °F 83% 30.22 in 10.0 mi WNW 3.5 mph - N/A   Clear
10:56 PM 46.9 °F - 43.0 °F 86% 30.23 in 10.0 mi WNW 3.5 mph - N/A   Clear
11:43 PM 44.6 °F 43.1 °F 42.8 °F 93% 30.23 in 2.5 mi NW 3.5 mph - N/A   Clear
11:51 PM 46.4 °F 45.2 °F 42.8 °F 87% 30.22 in 9.0 mi NW 3.5 mph - N/A   Clear
11:56 PM 46.0 °F 44.8 °F 43.0 °F 89% 30.23 in 10.0 mi NW 3.5 mph - N/A   Clear